Back to catalog

JILIN-01 KUANFU 02B 1

AliveScienceSSO
NORAD 61189·PAYLOAD·🇨🇳 China

Launched Sep 20, 2024 from Taiyuan Satellite Launch Center

Loading…

Next Passes (next 24 hours)

TLE

FreshSource: Space-Track

Epoch: Sep 14, 2026, 13:27 UTC

1 61189U 24169A   26257.56105053  .00002407  00000-0  15455-3 0  9990
2 61189  97.5550 345.7330 0004235  97.9884 262.1826 15.09400867109302

Track JILIN-01 KUANFU 02B 1 in real time with AllMySat

Download on the App Store